Location: Newark
(55.7083°N, 13.1992°E)
Time: 01:03:43
(UTC+00:00)

Transit 4A - Pass Details

Date: 21 February 2020
Orbit: 871 x 973 km, 66.8° (Epoch: 01 April)

Event Time Altitude Azimuth Distance (km) Brightness Sun altitude
Exits shadow 05:04:25 - 310° (NW) 2,763 9.9 -11.2°
Reaches altitude 10° 05:05:08 10° 314° (NW) 2,532 9.7 -11.1°
Maximum altitude 05:10:18 32° 16° (NNE) 1,475 9.1 -10.4°
Drops below altitude 10° 05:15:30 10° 79° (ENE) 2,540 11.6 -9.6°
Sets 05:18:18 0° 89° (E) 3,487 13.2 -9.2°
